Radiation Dose at Monitoring Post of Fukushima Daini Nuclear Power Station
Date,Time,MP-1(microSv/h),MP-2(microSv/h),MP-3(microSv/h),MP-4(microSv/h),MP-5(microSv/h),MP-6(microSv/h),MP-7(microSv/h),Wind Direction,Wind Velocity(m/s),Rain
2017/10/15,00:00,0.329,0.205,0.335,0.316,0.309,0.164,0.098,northwest,2.6,No
2017/10/15,00:10,0.330,0.206,0.335,0.315,0.307,0.165,0.099,northwest,2.1,No
2017/10/15,00:20,0.328,0.206,0.335,0.315,0.309,0.166,0.099,north-northwest,2.1,No
2017/10/15,00:30,0.330,0.206,0.336,0.317,0.307,0.164,0.099,north,2.7,No
2017/10/15,00:40,0.329,0.206,0.334,0.316,0.309,0.165,0.098,north,2.5,No
2017/10/15,00:50,0.329,0.206,0.336,0.318,0.306,0.165,0.100,north,3.5,No
2017/10/15,01:00,0.329,0.205,0.334,0.315,0.308,0.165,0.099,north,2.9,No
2017/10/15,01:10,0.328,0.206,0.335,0.315,0.307,0.166,0.100,north-northwest,2.6,No
2017/10/15,01:20,0.329,0.206,0.335,0.316,0.306,0.166,0.099,north,3.4,No
2017/10/15,01:30,0.329,0.207,0.333,0.315,0.310,0.166,0.098,north,3.5,No
2017/10/15,01:40,0.329,0.207,0.336,0.317,0.306,0.164,0.099,north,4.0,No
2017/10/15,01:50,0.329,0.205,0.334,0.315,0.309,0.166,0.099,north,3.6,No
2017/10/15,02:00,0.329,0.207,0.335,0.317,0.308,0.166,0.099,north,3.4,No
2017/10/15,02:10,0.330,0.206,0.335,0.317,0.308,0.166,0.099,north,4.3,No
2017/10/15,02:20,0.328,0.206,0.335,0.315,0.309,0.167,0.099,north-northeast,3.0,No
2017/10/15,02:30,0.330,0.207,0.337,0.318,0.307,0.166,0.099,north-northeast,3.1,No
2017/10/15,02:40,0.328,0.206,0.335,0.314,0.311,0.165,0.098,north,2.4,No
2017/10/15,02:50,0.329,0.205,0.338,0.318,0.307,0.166,0.099,-,CALM,No
2017/10/15,03:00,0.327,0.207,0.335,0.314,0.310,0.166,0.100,north,2.2,No
2017/10/15,03:10,0.328,0.206,0.336,0.316,0.308,0.166,0.099,north,2.7,No
2017/10/15,03:20,0.329,0.206,0.336,0.318,0.308,0.165,0.099,north-northeast,3.2,No
2017/10/15,03:30,0.329,0.206,0.335,0.314,0.311,0.166,0.100,north-northeast,3.4,No
2017/10/15,03:40,0.330,0.206,0.336,0.317,0.307,0.164,0.100,north-northeast,4.1,No
2017/10/15,03:50,0.330,0.207,0.333,0.316,0.308,0.166,0.099,north,4.4,No
2017/10/15,04:00,0.330,0.206,0.336,0.315,0.307,0.165,0.100,north,5.0,No
2017/10/15,04:10,0.329,0.206,0.335,0.317,0.309,0.164,0.099,north,5.7,No
2017/10/15,04:20,0.328,0.206,0.334,0.315,0.308,0.166,0.100,north,5.0,No
2017/10/15,04:30,0.330,0.206,0.336,0.317,0.307,0.167,0.099,north,5.2,No
2017/10/15,04:40,0.329,0.204,0.336,0.316,0.309,0.165,0.100,north,4.3,No
2017/10/15,04:50,0.329,0.206,0.336,0.316,0.307,0.165,0.099,north,5.1,No
2017/10/15,05:00,0.330,0.205,0.336,0.318,0.311,0.164,0.099,-,CALM,No
2017/10/15,05:10,0.329,0.206,0.334,0.315,0.307,0.166,0.099,north-northwest,4.0,No
2017/10/15,05:20,0.330,0.205,0.336,0.317,0.308,0.166,0.099,north-northwest,4.9,No
2017/10/15,05:30,0.328,0.206,0.335,0.316,0.306,0.166,0.099,north-northwest,5.6,No
2017/10/15,05:40,0.330,0.206,0.337,0.315,0.308,0.166,0.100,north,5.7,No
2017/10/15,05:50,0.328,0.205,0.335,0.317,0.310,0.164,0.099,north,6.7,No
2017/10/15,06:00,0.330,0.205,0.336,0.315,0.307,0.165,0.099,north,6.4,No
2017/10/15,06:10,0.331,0.207,0.336,0.317,0.310,0.166,0.100,north,7.1,No
2017/10/15,06:20,0.329,0.206,0.334,0.315,0.305,0.165,0.099,north,7.6,No
2017/10/15,06:30,0.330,0.206,0.336,0.316,0.309,0.165,0.099,north,7.6,No
2017/10/15,06:40,0.327,0.207,0.334,0.317,0.308,0.166,0.100,north,8.5,No
2017/10/15,06:50,0.331,0.205,0.337,0.316,0.309,0.165,0.099,north,8.9,No
2017/10/15,07:00,0.329,0.207,0.335,0.317,0.307,0.165,0.100,north,8.1,No
2017/10/15,07:10,0.329,0.205,0.336,0.313,0.307,0.165,0.100,north,7.1,No
2017/10/15,07:20,0.329,0.206,0.336,0.317,0.308,0.166,0.099,north-northwest,6.7,No
2017/10/15,07:30,0.331,0.206,0.333,0.316,0.306,0.165,0.100,north-northwest,6.4,No
2017/10/15,07:40,0.331,0.206,0.336,0.317,0.309,0.165,0.100,north,7.3,No
2017/10/15,07:50,0.329,0.207,0.334,0.315,0.307,0.167,0.099,north-northwest,6.5,No
2017/10/15,08:00,0.330,0.206,0.337,0.316,0.309,0.165,0.100,north-northwest,6.4,No
2017/10/15,08:10,0.329,0.207,0.335,0.317,0.307,0.166,0.099,north,6.5,No
2017/10/15,08:20,0.330,0.205,0.336,0.316,0.308,0.165,0.100,north,6.6,No
2017/10/15,08:30,0.329,0.206,0.335,0.316,0.307,0.167,0.099,north-northwest,5.9,No
2017/10/15,08:40,0.330,0.206,0.336,0.316,0.310,0.166,0.100,north-northwest,6.4,No
2017/10/15,08:50,0.329,0.206,0.336,0.318,0.307,0.166,0.100,north-northwest,5.5,No
2017/10/15,09:00,0.331,0.208,0.336,0.315,0.308,0.166,0.099,north-northwest,3.7,No
2017/10/15,09:10,0.328,0.206,0.335,0.318,0.307,0.166,0.099,north-northwest,4.6,No
2017/10/15,09:20,0.331,0.207,0.335,0.315,0.310,0.165,0.099,north,4.8,No
2017/10/15,09:30,0.329,0.206,0.337,0.317,0.308,0.165,0.100,north,4.8,No
2017/10/15,09:40,0.333,0.207,0.334,0.315,0.310,0.166,0.100,north,4.4,No
2017/10/15,09:50,0.329,0.206,0.337,0.318,0.306,0.166,0.100,north,5.4,No
2017/10/15,10:00,0.330,0.207,0.334,0.315,0.309,0.166,0.100,north,6.2,No
2017/10/15,10:10,0.331,0.206,0.338,0.318,0.308,0.166,0.100,north-northwest,7.1,No
2017/10/15,10:20,0.332,0.207,0.335,0.316,0.311,0.166,0.099,north,6.8,Yes
2017/10/15,10:30,0.330,0.207,0.337,0.317,0.309,0.166,0.100,north,7.4,Yes
2017/10/15,10:40,0.332,0.207,0.336,0.316,0.311,0.167,0.101,north-northwest,5.9,Yes
2017/10/15,10:50,0.332,0.207,0.337,0.316,0.308,0.166,0.101,north-northwest,6.2,Yes
2017/10/15,11:00,0.332,0.207,0.335,0.317,0.311,0.168,0.101,north,6.8,Yes
2017/10/15,11:10,0.333,0.210,0.340,0.320,0.310,0.168,0.101,north,5.8,Yes
2017/10/15,11:20,0.333,0.211,0.338,0.320,0.312,0.168,0.102,north,6.2,Yes
2017/10/15,11:30,0.334,0.210,0.338,0.318,0.311,0.168,0.102,north,5.5,No
2017/10/15,11:40,0.334,0.210,0.338,0.320,0.311,0.169,0.102,north-northwest,5.4,No
2017/10/15,11:50,0.333,0.209,0.337,0.318,0.309,0.167,0.101,north,6.2,No
2017/10/15,12:00,0.330,0.208,0.337,0.319,0.309,0.168,0.101,north,6.0,No
2017/10/15,12:10,0.333,0.207,0.336,0.315,0.309,0.167,0.101,north,5.3,No
2017/10/15,12:20,0.331,0.208,0.338,0.319,0.310,0.167,0.100,north,4.8,No
2017/10/15,12:30,0.331,0.206,0.334,0.316,0.307,0.167,0.101,north,5.5,No
2017/10/15,12:40,0.329,0.208,0.335,0.317,0.310,0.167,0.100,north,3.6,No
2017/10/15,12:50,0.333,0.207,0.335,0.314,0.308,0.167,0.099,north-northwest,3.6,No
2017/10/15,13:00,0.329,0.206,0.337,0.317,0.310,0.166,0.099,north-northwest,1.7,No
2017/10/15,13:10,0.333,0.207,0.335,0.315,0.307,0.166,0.100,north,3.6,No
2017/10/15,13:20,0.331,0.207,0.338,0.319,0.311,0.166,0.099,north,4.3,No
2017/10/15,13:30,0.332,0.207,0.334,0.315,0.308,0.165,0.099,north,4.8,No
2017/10/15,13:40,0.329,0.208,0.336,0.317,0.310,0.167,0.099,north,4.5,No
2017/10/15,13:50,0.333,0.206,0.335,0.315,0.307,0.167,0.098,north,4.1,No
2017/10/15,14:00,0.329,0.207,0.338,0.319,0.310,0.166,0.100,north,4.8,No
2017/10/15,14:10,0.332,0.207,0.335,0.314,0.307,0.166,0.100,north,5.1,No
2017/10/15,14:20,0.330,0.207,0.338,0.317,0.310,0.165,0.099,north,5.0,No
2017/10/15,14:30,0.331,0.206,0.336,0.315,0.308,0.166,0.099,-,CALM,No
2017/10/15,14:40,0.330,0.207,0.336,0.318,0.309,0.166,0.098,north,5.6,No
2017/10/15,14:50,0.331,0.206,0.335,0.316,0.309,0.166,0.100,north,5.7,No
2017/10/15,15:00,0.330,0.206,0.339,0.317,0.310,0.166,0.099,north,4.5,No
2017/10/15,15:10,0.330,0.206,0.337,0.314,0.309,0.165,0.099,north,4.3,No
2017/10/15,15:20,0.331,0.207,0.338,0.317,0.308,0.166,0.099,north,3.8,No
2017/10/15,15:30,0.333,0.208,0.335,0.315,0.309,0.166,0.099,north,3.6,No
2017/10/15,15:40,0.332,0.207,0.338,0.319,0.309,0.167,0.100,north-northwest,4.1,No
2017/10/15,15:50,0.329,0.207,0.336,0.315,0.309,0.166,0.099,north,5.4,No
2017/10/15,16:00,0.330,0.207,0.338,0.317,0.309,0.166,0.100,north,5.2,No
2017/10/15,16:10,0.331,0.209,0.336,0.318,0.310,0.166,0.099,north,6.2,No
2017/10/15,16:20,0.330,0.208,0.339,0.319,0.309,0.167,0.099,north-northwest,5.6,No
2017/10/15,16:30,0.333,0.208,0.336,0.317,0.310,0.166,0.100,north-northwest,5.3,No
2017/10/15,16:40,0.331,0.209,0.339,0.317,0.310,0.166,0.100,north-northwest,4.8,No
2017/10/15,16:50,0.334,0.207,0.338,0.318,0.311,0.166,0.100,north-northwest,4.9,No
2017/10/15,17:00,0.331,0.208,0.339,0.318,0.312,0.167,0.100,north-northwest,4.5,No
2017/10/15,17:10,0.333,0.207,0.337,0.317,0.308,0.166,0.099,north-northwest,4.5,No
2017/10/15,17:20,0.332,0.209,0.338,0.317,0.311,0.166,0.099,north-northwest,5.2,No
2017/10/15,17:30,0.333,0.208,0.339,0.318,0.308,0.167,0.100,north-northwest,4.5,No
2017/10/15,17:40,0.332,0.207,0.337,0.317,0.311,0.165,0.100,north-northwest,4.6,No
2017/10/15,17:50,0.334,0.208,0.338,0.318,0.309,0.166,0.100,north-northwest,5.0,No
2017/10/15,18:00,0.331,0.207,0.336,0.316,0.311,0.166,0.100,north-northwest,4.6,No
2017/10/15,18:10,0.331,0.209,0.339,0.320,0.308,0.167,0.099,north-northwest,4.3,No
2017/10/15,18:20,0.332,0.208,0.337,0.317,0.310,0.166,0.099,north-northwest,4.4,No
2017/10/15,18:30,0.332,0.206,0.338,0.319,0.308,0.166,0.100,north,4.5,No
2017/10/15,18:40,0.333,0.207,0.337,0.315,0.312,0.166,0.100,north,4.6,No
2017/10/15,18:50,0.330,0.207,0.337,0.319,0.307,0.167,0.100,north,4.6,No
2017/10/15,19:00,0.334,0.208,0.337,0.317,0.311,0.166,0.099,north,4.4,No
2017/10/15,19:10,0.332,0.208,0.335,0.318,0.309,0.166,0.100,north-northwest,4.8,No
2017/10/15,19:20,0.334,0.209,0.340,0.318,0.310,0.166,0.099,north,5.7,No
2017/10/15,19:30,0.332,0.208,0.336,0.319,0.310,0.166,0.100,north,5.4,No
2017/10/15,19:40,0.333,0.208,0.338,0.319,0.310,0.168,0.099,north,6.2,No
2017/10/15,19:50,0.332,0.207,0.337,0.317,0.311,0.167,0.100,north-northwest,5.5,No
2017/10/15,20:00,0.333,0.208,0.339,0.319,0.308,0.167,0.100,north-northwest,5.3,No
2017/10/15,20:10,0.333,0.206,0.338,0.318,0.309,0.166,0.101,north-northwest,5.7,No
2017/10/15,20:20,0.332,0.208,0.337,0.319,0.309,0.167,0.100,north-northwest,5.5,No
2017/10/15,20:30,0.333,0.208,0.338,0.318,0.310,0.167,0.100,north-northwest,5.7,No
2017/10/15,20:40,0.333,0.208,0.338,0.320,0.310,0.165,0.100,north-northwest,6.3,No
2017/10/15,20:50,0.333,0.207,0.339,0.319,0.310,0.166,0.100,north-northwest,6.8,Yes
2017/10/15,21:00,0.333,0.207,0.337,0.318,0.309,0.166,0.101,north-northwest,6.0,No
2017/10/15,21:10,0.333,0.207,0.339,0.319,0.311,0.167,0.099,north-northwest,6.0,Yes
2017/10/15,21:20,0.332,0.209,0.338,0.317,0.308,0.166,0.100,north-northwest,6.0,No
2017/10/15,21:30,0.335,0.206,0.340,0.319,0.311,0.167,0.100,north-northwest,5.5,No
2017/10/15,21:40,0.334,0.208,0.338,0.318,0.308,0.167,0.099,north-northwest,6.0,No
2017/10/15,21:50,0.332,0.208,0.338,0.319,0.311,0.167,0.100,north-northwest,6.3,No
2017/10/15,22:00,0.333,0.208,0.338,0.319,0.308,0.166,0.100,north-northwest,6.4,No
2017/10/15,22:10,0.332,0.209,0.338,0.320,0.310,0.167,0.101,north-northwest,6.8,No
2017/10/15,22:20,0.334,0.208,0.339,0.318,0.310,0.167,0.099,north,6.0,No
2017/10/15,22:30,0.331,0.208,0.338,0.317,0.308,0.166,0.101,north,7.1,No
2017/10/15,22:40,0.334,0.207,0.341,0.319,0.310,0.167,0.099,north,7.6,No
2017/10/15,22:50,0.332,0.209,0.338,0.318,0.309,0.166,0.100,north,7.3,No
2017/10/15,23:00,0.334,0.209,0.340,0.320,0.310,0.167,0.100,north,7.5,No
2017/10/15,23:10,0.333,0.208,0.338,0.319,0.308,0.166,0.100,north,8.1,No
2017/10/15,23:20,0.333,0.209,0.339,0.318,0.311,0.167,0.100,north,8.6,No
2017/10/15,23:30,0.333,0.208,0.339,0.320,0.309,0.166,0.100,north,8.2,No
2017/10/15,23:40,0.332,0.209,0.338,0.317,0.311,0.166,0.100,north-northwest,7.8,No
2017/10/15,23:50,0.333,0.208,0.339,0.320,0.311,0.166,0.100,north,8.4,No
